Inquirer Daily News

Weather

Get conditions and forecasts for any City, State, ZIP code or Country:  
Trenton, NJ
on Saturday, November 17, 2012

Saturday
Previous Day Next Day
Daily Summary
 ActualAverageRecord
Temperature
Mean Temperature °F 45°F  
Max Temperature 53°F 54°F 72°F (1896)
Min Temperature 30°F 37°F 19°F (1933)
Degree Days
Heating Degree Days 23 20  
Month to date heating degree days 369 293  
Since 1 July heating degree days 676 690  
Cooling Degree Days 0 0  
Month to date cooling degree days 0 0  
Year to date cooling degree days 1234 965  
Moisture
Dew Point 28°F   
Average Humidity 62    
Maximum Humidity 82    
Minimum Humidity 41    
Precipitation
Precipitation 0.00 in 0.12 in 1.30 in (2002)
Month to date precipitation 0.58 1.77  
Year to date precipitation 32.63 41.20  
Wind
Wind Speed 5 mph   
Max Wind Speed 14 mph   
Max Gust Speed 17 mph   
Visibility 10 miles   
Events     

Key: T is trace of precipitation, MM is missing value
Source: NWS Daily Summary
Time(EST)TemperatureDew PointHumidity Pressure Visibility Wind DirectionWind SpeedGust SpeedPrecipitationEvents Conditions
12:53 AM 34.0°F 24.1°F 67% 30.44 in 10.0 miles NNE 3.5 mph - N/A   Clear
1:53 AM 35.1°F 24.1°F 64% 30.45 in 10.0 miles Calm Calm - N/A   Clear
2:53 AM 30.9°F 24.1°F 76% 30.45 in 10.0 miles Calm Calm - N/A   Clear
3:53 AM 35.1°F 25.0°F 67% 30.46 in 10.0 miles North 6.9 mph - N/A   Clear
4:53 AM 34.0°F 25.0°F 70% 30.48 in 10.0 miles North 8.1 mph - N/A   Clear
5:53 AM 33.1°F 24.1°F 70% 30.50 in 10.0 miles North 8.1 mph - N/A   Clear
6:53 AM 34.0°F 24.1°F 67% 30.53 in 10.0 miles North 5.8 mph - N/A   Clear
7:53 AM 37.0°F 26.1°F 65% 30.56 in 10.0 miles NNE 5.8 mph - N/A   Clear
8:53 AM 43.0°F 28.0°F 56% 30.57 in 10.0 miles ENE 10.4 mph 16.1 mph N/A   Clear
9:53 AM 46.0°F 28.9°F 51% 30.58 in 10.0 miles ENE 9.2 mph - N/A   Clear
10:53 AM 48.9°F 30.0°F 48% 30.58 in 10.0 miles ENE 10.4 mph - N/A   Clear
11:53 AM 51.1°F 30.9°F 46% 30.57 in 10.0 miles ENE 10.4 mph - N/A   Clear
12:53 PM 53.1°F 30.9°F 43% 30.56 in 10.0 miles East 8.1 mph - N/A   Clear
1:53 PM 52.0°F 30.9°F 45% 30.55 in 10.0 miles ESE 6.9 mph - N/A   Clear
2:53 PM 53.1°F 30.9°F 43% 30.55 in 10.0 miles ESE 6.9 mph - N/A   Clear
3:53 PM 51.1°F 30.9°F 46% 30.56 in 10.0 miles ESE 4.6 mph - N/A   Clear
4:53 PM 48.0°F 30.0°F 50% 30.57 in 10.0 miles SE 3.5 mph - N/A   Clear
5:53 PM 44.1°F 30.0°F 58% 30.58 in 10.0 miles Calm Calm - N/A   Clear
6:53 PM 43.0°F 30.0°F 60% 30.59 in 10.0 miles Calm Calm - N/A   Clear
7:53 PM 39.0°F 30.0°F 70% 30.58 in 10.0 miles NNE 3.5 mph - N/A   Clear
8:53 PM 37.9°F 30.0°F 73% 30.59 in 10.0 miles NNE 3.5 mph - N/A   Clear
9:53 PM 35.1°F 28.9°F 78% 30.60 in 10.0 miles Calm Calm - N/A   Clear
10:53 PM 34.0°F 28.9°F 82% 30.61 in 10.0 miles North 5.8 mph - N/A   Clear
11:53 PM 37.0°F 30.0°F 76% 30.61 in 9.0 miles NNE 5.8 mph - N/A   Clear
Astronomy
Sunrise:06:47 AM (EST) Moon Rise:10:30 AM (EST)11/17
Sunset:04:40 PM (EST) Moon Set:08:47 PM (EST)11/17
Moon Phase
Nov. 17 Nov. 20 Nov. 28 Dec. 06 Dec. 13

Copyright © 2014 The Weather Underground, Inc.